Temperature
8 8 8 8 8 9 9 9 9 9 9 9 9 9 9 9 9 10 10 10 10 10 10 10 10 11 11 11 11 11 11 11 11 12 12 12 11 11 11 11 11 11 11
8 8 8 8 8 8 8 8 8 8 8 8 8 8 8 9 9 9 9 9 10 10 10 10 10 10 10 10 11 11 11 11 11 11 11 11 11 11 11 11 11 11 11
7 7 7 7 7 7 8 8 8 8 8 8 8 8 8 8 8 8 8 9 9 9 10 10 10 10 10 10 10 10 11 11 11 11 11 11 11 11 11 11 11 11 11
7 7 7 7 7 7 7 7 7 7 7 7 7 8 8 8 8 8 8 8 9 9 9 9 9 9 9 10 10 10 10 10 10 10 10 10 10 10 10 10 10 10 10
6 6 6 6 6 6 6 6 6 7 7 7 7 7 7 7 7 7 8 8 8 8 8 8 9 9 9 9 9 9 10 10 10 10 10 10 10 10 10 10 10 10 10
6 6 6 6 6 6 6 6 6 6 6 6 6 6 7 7 7 7 7 7 7 7 8 8 8 8 8 9 9 9 9 9 9 9 9 10 10 10 9 9 10 10 10
5 5 5 5 5 5 5 5 5 5 5 5 5 6 6 6 6 6 6 7 7 7 7 7 7 8 8 8 8 8 9 9 9 9 9 9 9 9 9 9 9 9 9
4 4 4 4 4 4 4 4 4 5 5 4 4 4 5 5 5 6 6 6 6 6 6 7 7 7 7 7 8 8 8 8 8 8 8 9 9 9 9 9 9 9 9
3 3 3 4 4 4 4 4 4 4 4 4 4 4 4 4 4 5 5 5 5 6 6 6 6 6 6 7 7 7 7 8 8 8 8 8 8 8 8 8 8 8 8
3 3 3 3 3 3 3 3 3 3 3 3 3 3 3 3 3 3 4 4 5 5 5 5 6 6 6 6 6 6 7 7 7 7 8 8 8 8 8 8 8 8 8
2 2 2 2 2 2 2 2 3 3 3 3 3 3 3 3 3 3 3 3 4 4 4 5 5 5 5 5 5 6 6 6 6 7 7 7 7 7 7 7 7 7 7
1 1 1 1 2 2 2 2 2 2 2 2 2 2 2 2 2 2 2 2 3 3 4 4 4 5 5 5 5 5 5 5 6 6 6 6 7 7 7 7 7 7 7
0 1 1 1 1 1 1 1 1 1 1 1 1 2 2 2 2 2 1 2 2 2 3 3 3 4 4 4 4 5 5 5 5 5 6 6 6 6 6 6 6 6 6
-0 -0 -0 -0 0 0 0 0 0 0 0 1 1 1 1 1 1 1 1 1 1 1 2 2 3 3 3 4 4 4 4 5 5 5 5 6 6 6 6 6 6 6 6
-1 -1 -1 -1 -0 -0 -0 -0 -0 -0 -0 -0 0 0 0 1 1 1 1 1 0 0 1 1 2 2 3 3 3 4 4 4 4 5 5 5 5 5 5 5 5 6 6
-2 -1 -1 -1 -1 -1 -1 -1 -1 -1 -1 -1 -1 -0 -0 -0 0 0 0 0 0 0 0 1 1 2 2 2 2 3 3 4 4 4 4 4 5 5 5 5 5 5 5
-2 -2 -2 -2 -2 -2 -2 -2 -1 -1 -1 -1 -1 -1 -1 -1 -1 -0 -0 -0 -0 -0 -0 0 1 1 1 2 2 2 2 3 3 4 4 4 4 4 4 5 5 5 5
-3 -3 -3 -2 -2 -2 -2 -2 -2 -2 -2 -2 -2 -2 -2 -2 -1 -1 -1 -1 -1 -1 -1 -0 -0 0 1 1 1 1 2 2 2 3 3 3 3 4 4 4 4 4 4
-4 -3 -3 -3 -3 -3 -3 -3 -3 -3 -3 -2 -2 -2 -2 -2 -2 -2 -2 -1 -1 -1 -1 -1 -1 -1 -0 0 0 1 1 1 2 2 2 2 3 3 3 3 4 4 4
-4 -4 -4 -4 -4 -3 -3 -3 -3 -3 -3 -3 -3 -3 -3 -3 -3 -3 -2 -2 -2 -2 -2 -2 -2 -2 -1 -1 -0 0 0 1 1 1 1 2 2 2 3 3 3 3 3
-5 -5 -5 -4 -4 -4 -4 -4 -4 -4 -4 -4 -4 -3 -3 -3 -3 -3 -3 -3 -3 -3 -3 -3 -2 -2 -2 -2 -1 -1 -0 -0 0 0 1 1 1 2 2 2 2 2 2
-6 -6 -5 -5 -5 -5 -4 -5 -5 -4 -4 -4 -4 -4 -4 -4 -4 -4 -4 -4 -4 -3 -3 -3 -3 -3 -2 -2 -2 -2 -1 -1 -1 -0 -0 0 1 1 1 1 1 1 1
-7 -6 -6 -6 -6 -5 -5 -5 -5 -5 -5 -5 -5 -5 -5 -5 -5 -4 -4 -4 -4 -4 -4 -4 -3 -3 -3 -3 -2 -2 -2 -2 -1 -1 -1 -1 -0 -0 0 0 0 1 1
-7 -7 -7 -7 -6 -6 -6 -6 -6 -6 -5 -5 -5 -5 -5 -5 -5 -5 -5 -5 -5 -4 -4 -4 -4 -4 -3 -3 -3 -3 -2 -2 -2 -2 -2 -2 -1 -1 -1 -1 -0 -0 -0
-8 -8 -8 -7 -7 -7 -6 -6 -6 -6 -6 -6 -6 -6 -6 -5 -5 -5 -5 -5 -5 -5 -5 -5 -4 -4 -4 -4 -4 -4 -3 -3 -3 -3 -3 -3 -2 -2 -2 -1 -1 -1 -1
-9 -8 -8 -8 -8 -7 -7 -7 -7 -7 -7 -7 -6 -6 -6 -6 -6 -6 -6 -6 -6 -5 -5 -5 -5 -5 -4 -4 -4 -4 -4 -4 -4 -4 -3 -3 -3 -3 -3 -2 -2 -2 -2
Wind_Speed
3 4 4 4 5 6 5 4 4 5 4 5 4 3 3 3 3 3 3 3 3 2 1 2 2 2 2 2 3 4 5 5 5 5 7 7 8 8 9 9 9 9 9
4 3 3 3 4 4 4 4 3 3 3 3 3 4 3 2 2 3 3 2 2 2 1 1 2 2 3 3 3 3 4 5 5 5 6 7 7 8 9 9 9 9 8
4 3 2 3 4 4 4 4 3 3 2 2 3 3 3 3 2 2 2 1 1 0 0 0 1 2 2 3 3 3 3 4 5 5 5 7 7 8 9 9 9 8 8
4 3 2 2 4 4 3 2 1 1 1 1 2 2 2 3 2 2 2 2 1 0 1 1 1 1 2 3 3 4 4 4 5 5 5 6 7 9 9 9 8 8 7
3 3 2 2 3 3 2 2 2 1 1 2 2 2 2 1 1 1 1 1 1 1 1 2 2 1 2 3 4 4 5 4 5 5 4 5 7 8 9 9 8 8 7
2 2 2 2 2 1 1 1 2 1 1 1 2 2 2 2 1 1 0 1 1 1 1 1 1 2 2 2 3 4 5 5 5 5 5 4 7 8 9 9 8 8 7
1 2 1 1 2 0 1 1 1 1 1 1 1 1 2 1 1 1 0 1 1 1 1 1 1 1 1 2 3 4 4 5 5 5 5 5 5 7 9 8 8 7 7
1 1 1 0 1 0 1 1 1 1 1 1 0 1 1 2 1 1 1 0 0 1 1 1 1 1 1 1 2 3 4 3 4 5 6 5 5 7 8 8 8 7 7
1 1 1 1 1 0 0 0 0 1 1 2 1 0 1 2 1 1 1 1 1 1 0 0 0 1 1 1 1 2 3 3 3 3 5 5 5 7 7 8 8 8 8
1 1 1 1 1 0 0 1 0 1 1 1 1 1 1 1 1 1 1 1 2 2 1 1 1 1 1 1 2 3 3 4 3 3 4 5 4 6 7 8 8 8 8
1 1 1 1 1 1 1 1 1 1 1 1 1 1 2 2 1 2 2 2 2 2 2 2 1 1 1 2 2 2 3 3 3 3 3 4 5 4 5 6 7 7 8
2 2 2 1 1 1 1 2 2 2 2 2 2 2 2 2 2 2 2 2 2 2 2 2 2 2 2 2 2 3 3 3 4 4 4 3 4 4 5 5 6 7 7
2 2 2 2 2 2 3 2 2 2 2 3 3 3 3 3 2 2 2 2 2 2 2 2 2 1 1 1 2 2 3 4 4 5 5 5 4 4 5 6 5 6 6
3 3 3 3 4 3 3 2 3 3 3 3 4 3 3 3 3 3 3 2 2 3 2 3 2 2 1 1 2 3 3 4 4 5 5 5 4 4 5 6 6 5 5
4 3 4 4 4 4 3 3 3 3 3 4 4 4 4 3 3 3 3 4 4 3 4 3 2 2 2 3 3 3 4 5 5 6 6 5 5 4 5 6 6 6 6
5 4 3 4 4 4 4 3 3 4 4 4 4 4 4 3 3 3 3 4 4 4 5 3 2 2 3 4 5 4 4 5 6 6 7 6 6 6 6 7 7 7 7
5 4 4 4 4 5 4 4 4 4 5 5 5 5 6 5 4 4 3 3 4 4 6 4 2 2 3 3 3 4 5 5 6 7 7 7 7 7 8 8 8 8 8
5 5 5 5 5 5 5 5 6 6 6 6 6 6 6 5 5 5 4 5 4 4 5 5 3 3 4 4 4 4 4 5 5 7 8 8 8 8 8 9 9 8 8
6 5 5 5 5 5 6 6 6 6 7 7 7 7 7 6 6 5 5 5 5 4 3 4 4 3 3 3 3 4 4 4 5 6 7 8 8 8 9 8 8 9 9
6 6 6 5 5 5 6 6 6 6 6 6 6 7 7 7 7 6 6 6 5 4 4 4 4 3 3 3 2 3 3 2 3 4 5 6 8 9 9 8 9 9 9
7 6 6 6 5 5 6 6 6 7 6 6 7 7 7 8 9 8 7 6 6 5 5 5 4 3 3 3 4 3 3 2 3 3 2 3 4 5 6 8 9 9 9
7 7 6 6 6 6 9 11 8 6 6 7 7 7 7 8 9 11 11 10 8 7 7 6 5 6 6 5 4 4 3 2 3 2 2 2 3 3 5 6 8 9 10
7 7 7 6 7 7 10 10 11 6 6 6 6 6 6 7 8 6 8 10 10 12 11 8 7 7 7 6 5 5 5 5 4 3 2 3 3 3 5 7 8 9 9
7 7 7 7 7 8 11 11 11 7 6 6 6 6 6 6 7 7 6 7 7 7 9 8 7 7 7 6 7 6 5 3 3 2 3 3 2 3 4 6 8 8 9
7 7 7 7 7 8 11 11 10 5 5 6 6 6 6 6 10 10 7 7 7 7 9 11 11 10 11 11 9 4 4 4 3 3 3 3 2 2 2 3 7 8 8
7 8 8 7 7 7 10 11 10 5 5 5 5 6 8 9 11 11 8 7 8 6 5 5 7 8 8 9 11 8 6 5 3 3 3 3 2 1 2 2 3 5 6
Wind_Direction
54 47 40 35 26 21 20 14 19 22 16 10 12 23 49 61 76 92 95 87 88 91 105 140 149 146 148 142 138 130 142 134 129 127 136 134 132 129 125 122 120 116 112
47 43 36 32 29 17 3 6 16 24 20 19 12 8 30 53 74 105 119 106 91 80 94 164 170 174 177 173 157 140 156 157 150 136 147 147 146 141 137 131 126 122 120
42 38 34 23 19 10 4 9 15 25 34 27 9 9 19 31 58 73 98 118 131 182 275 218 197 190 189 189 189 171 155 166 161 152 148 152 156 154 149 141 135 129 126
47 39 37 22 8 5 10 8 33 15 13 10 348 342 17 30 37 46 79 100 119 218 255 265 221 193 196 199 201 199 189 177 171 165 157 167 163 162 158 150 145 142 137
52 40 34 17 7 4 5 0 6 358 5 4 344 332 344 354 24 25 79 97 127 158 205 236 222 197 208 210 206 207 206 196 183 175 169 176 173 167 168 162 157 152 146
56 43 32 14 8 14 6 12 358 351 343 343 330 326 317 299 356 357 81 99 107 119 126 167 179 219 222 220 215 208 207 205 196 183 176 170 177 175 173 164 164 164 159
56 57 27 6 4 25 345 7 5 3 339 344 340 327 315 280 232 271 85 108 119 121 107 119 151 181 217 247 237 217 211 208 204 194 188 181 183 182 178 173 173 171 168
6 33 58 358 351 8 15 45 29 350 303 314 317 308 314 314 323 291 309 274 255 101 85 63 112 157 154 201 240 226 210 207 208 210 201 197 198 192 189 188 187 184 180
353 3 337 333 327 285 192 89 123 356 289 291 306 192 204 239 300 297 307 324 332 344 95 76 10 212 195 189 218 221 213 211 219 229 213 204 209 204 198 197 191 191 186
307 287 280 308 313 279 214 258 281 266 220 254 285 295 253 217 208 285 295 309 335 330 321 333 335 303 223 195 221 219 210 204 218 237 242 223 224 219 204 199 193 188 189
315 306 280 268 298 290 246 273 287 269 240 236 243 279 278 280 239 224 260 285 303 308 318 300 282 255 243 212 198 188 200 207 214 230 249 243 232 223 198 194 193 190 188
310 310 289 280 274 278 250 253 259 265 263 255 247 245 244 244 238 233 244 264 269 277 291 274 255 234 220 196 192 187 184 211 224 228 238 248 229 221 217 204 203 199 196
301 281 292 275 268 266 266 262 249 253 256 248 240 245 251 249 249 241 234 249 269 277 264 270 242 226 207 160 200 211 208 221 231 234 236 242 244 233 221 211 204 202 199
272 290 282 272 270 266 262 256 248 250 248 248 250 248 251 254 247 236 224 220 258 266 247 246 260 198 224 261 235 232 227 233 236 239 236 238 245 246 225 216 202 200 208
290 288 280 270 270 264 256 250 246 249 250 245 246 249 250 251 248 246 232 214 213 236 248 234 220 227 232 239 254 251 242 236 241 236 225 227 229 233 226 215 205 200 209
286 278 275 267 263 264 257 244 245 247 246 249 246 246 251 249 245 243 238 233 224 224 246 241 248 251 217 232 246 249 257 251 239 232 225 223 224 229 227 211 209 207 212
281 269 265 263 258 256 256 247 242 243 243 248 248 244 248 246 241 241 234 231 232 225 243 257 258 253 235 229 230 235 241 241 238 235 229 225 227 233 227 213 211 210 213
291 273 267 262 258 255 252 249 246 244 243 243 244 242 244 244 240 239 229 230 229 226 232 250 256 248 248 230 221 224 230 236 236 239 233 229 229 235 227 216 212 212 213
305 295 280 267 264 258 252 250 247 246 244 244 239 237 239 236 236 239 232 230 232 234 233 240 254 251 253 239 234 245 230 221 235 239 237 234 233 238 225 219 218 215 214
306 299 288 278 272 267 260 255 251 252 250 247 244 243 239 234 234 234 236 229 228 229 232 232 244 246 247 240 222 232 249 233 235 233 238 241 239 236 229 226 225 221 219
310 303 296 285 276 268 262 256 252 251 250 251 250 249 245 241 240 236 237 229 221 223 227 230 235 242 243 230 224 230 238 242 253 227 220 229 222 221 227 231 229 225 224
314 308 299 294 283 276 273 270 268 255 247 246 250 251 249 247 247 246 246 243 234 227 225 228 237 234 237 237 231 229 231 242 253 215 211 245 207 219 224 226 230 229 225
311 307 304 298 292 286 286 282 275 269 252 248 246 248 255 251 244 241 248 250 248 246 240 232 233 236 235 228 220 223 224 231 248 220 205 243 222 235 225 231 236 233 232
312 307 304 299 296 293 292 287 283 274 258 250 245 241 247 250 242 238 239 242 244 248 249 242 236 239 240 229 221 224 229 243 259 216 189 236 232 236 233 226 238 236 231
311 307 303 300 297 298 298 291 287 275 262 259 255 247 242 242 248 245 239 237 244 250 250 246 245 245 246 243 231 219 215 216 243 236 199 205 228 251 258 239 231 236 234
306 309 306 300 294 294 297 294 288 275 266 265 261 254 250 249 251 247 237 233 240 246 244 249 251 250 245 239 232 220 209 207 221 228 201 190 204 193 257 256 217 222 227
Height
1529 1529 1530 1531 1532 1532 1533 1533 1534 1535 1536 1537 1538 1539 1539 1540 1541 1542 1543 1544 1545 1546 1547 1548 1549 1550 1552 1553 1554 1555 1556 1557 1558 1559 1560 1561 1562 1563 1564 1565 1566 1567 1568
1527 1527 1528 1529 1529 1530 1531 1532 1532 1533 1533 1534 1536 1536 1537 1538 1539 1539 1540 1541 1542 1543 1545 1546 1547 1548 1549 1551 1552 1553 1554 1556 1557 1558 1559 1560 1561 1562 1563 1564 1565 1566 1567
1525 1525 1526 1526 1527 1528 1529 1529 1530 1531 1531 1532 1533 1534 1535 1535 1536 1537 1538 1539 1540 1541 1542 1543 1545 1546 1547 1548 1549 1551 1552 1554 1555 1556 1557 1558 1559 1561 1562 1563 1564 1565 1566
1522 1523 1523 1524 1524 1525 1526 1527 1527 1528 1528 1529 1530 1531 1532 1533 1534 1534 1535 1536 1537 1538 1540 1541 1542 1543 1544 1545 1547 1548 1549 1551 1553 1554 1555 1556 1557 1559 1560 1561 1563 1564 1565
1519 1520 1521 1521 1522 1522 1523 1524 1524 1525 1525 1526 1527 1528 1529 1530 1531 1531 1532 1533 1534 1535 1537 1538 1539 1540 1541 1543 1544 1545 1547 1548 1550 1551 1553 1554 1555 1557 1558 1559 1561 1562 1563
1517 1517 1518 1518 1519 1519 1520 1521 1521 1522 1523 1523 1524 1525 1526 1527 1528 1528 1529 1530 1532 1533 1534 1535 1536 1537 1538 1540 1541 1542 1544 1545 1547 1548 1550 1551 1553 1554 1555 1557 1558 1560 1561
1513 1514 1515 1515 1516 1516 1517 1517 1518 1519 1520 1521 1522 1522 1523 1524 1525 1525 1526 1527 1528 1530 1531 1532 1533 1534 1535 1536 1538 1539 1541 1542 1544 1546 1547 1549 1550 1551 1553 1555 1556 1558 1559
1510 1510 1511 1512 1512 1513 1513 1514 1515 1515 1516 1518 1519 1520 1520 1522 1521 1522 1523 1524 1525 1527 1528 1529 1530 1531 1532 1533 1534 1536 1537 1539 1541 1542 1544 1546 1547 1548 1550 1552 1553 1555 1556
1507 1507 1508 1508 1509 1509 1510 1510 1512 1512 1513 1515 1516 1518 1518 1518 1518 1519 1520 1521 1522 1523 1524 1525 1526 1528 1529 1530 1531 1533 1534 1535 1537 1539 1541 1542 1544 1545 1546 1548 1550 1551 1553
1504 1504 1505 1505 1505 1506 1506 1507 1508 1509 1510 1511 1513 1514 1516 1516 1517 1515 1516 1517 1518 1519 1520 1522 1523 1524 1525 1526 1528 1529 1530 1532 1533 1535 1537 1538 1540 1541 1543 1544 1546 1547 1549
1500 1501 1501 1501 1502 1502 1503 1504 1504 1505 1506 1507 1509 1510 1512 1513 1513 1513 1513 1513 1514 1515 1517 1518 1519 1520 1521 1523 1524 1525 1527 1529 1530 1531 1533 1534 1536 1538 1539 1540 1542 1544 1545
1496 1497 1497 1498 1498 1498 1499 1500 1500 1501 1502 1503 1505 1506 1508 1509 1509 1510 1510 1510 1511 1511 1512 1514 1515 1516 1518 1519 1520 1522 1523 1524 1526 1527 1528 1530 1532 1533 1535 1536 1538 1540 1541
1492 1493 1493 1494 1494 1494 1495 1496 1496 1497 1498 1499 1500 1502 1503 1504 1506 1506 1507 1507 1507 1507 1508 1509 1511 1512 1514 1514 1516 1517 1519 1520 1521 1522 1524 1525 1527 1529 1530 1532 1534 1535 1537
1488 1489 1489 1489 1490 1490 1491 1491 1492 1493 1494 1495 1496 1497 1498 1499 1501 1502 1503 1504 1504 1504 1504 1505 1506 1508 1509 1510 1511 1513 1514 1515 1517 1518 1519 1521 1522 1524 1525 1527 1529 1531 1532
1484 1484 1485 1485 1486 1486 1486 1487 1487 1488 1489 1490 1491 1492 1493 1494 1496 1497 1498 1500 1501 1500 1500 1500 1501 1502 1504 1506 1506 1508 1509 1510 1512 1513 1514 1516 1517 1519 1520 1522 1524 1526 1528
1480 1480 1480 1481 1481 1481 1482 1482 1483 1484 1485 1486 1487 1487 1488 1489 1490 1492 1493 1494 1495 1496 1496 1495 1497 1498 1499 1501 1502 1503 1504 1505 1506 1508 1509 1511 1512 1514 1515 1517 1519 1521 1523
1475 1475 1476 1476 1476 1476 1477 1478 1478 1479 1480 1481 1481 1482 1483 1484 1485 1486 1487 1488 1490 1491 1491 1491 1493 1493 1494 1495 1497 1498 1499 1500 1501 1502 1504 1505 1507 1509 1510 1512 1514 1515 1517
1471 1471 1471 1471 1471 1472 1472 1473 1473 1474 1475 1475 1476 1477 1478 1479 1480 1481 1482 1483 1484 1485 1486 1486 1486 1488 1489 1490 1491 1492 1493 1494 1496 1497 1499 1500 1502 1503 1505 1506 1508 1510 1512
1466 1466 1466 1466 1466 1466 1467 1467 1468 1468 1469 1470 1471 1471 1472 1473 1474 1475 1476 1477 1479 1480 1481 1481 1481 1482 1484 1485 1486 1487 1488 1489 1490 1491 1493 1495 1496 1498 1499 1500 1502 1504 1506
1462 1461 1461 1461 1461 1461 1462 1462 1462 1463 1463 1464 1465 1466 1466 1467 1468 1470 1471 1472 1473 1474 1475 1476 1476 1477 1478 1479 1480 1481 1481 1483 1484 1486 1487 1489 1490 1492 1493 1495 1497 1498 1500
1458 1457 1457 1457 1457 1457 1457 1457 1457 1457 1458 1458 1459 1460 1461 1461 1463 1464 1466 1467 1468 1469 1469 1470 1471 1472 1472 1474 1475 1475 1476 1477 1478 1480 1481 1483 1484 1486 1487 1489 1491 1492 1494
1454 1453 1452 1452 1452 1452 1452 1452 1452 1452 1452 1453 1453 1454 1455 1456 1457 1459 1460 1461 1463 1463 1464 1465 1465 1466 1467 1469 1470 1470 1471 1472 1472 1475 1476 1477 1479 1480 1481 1483 1485 1486 1488
1450 1449 1448 1447 1447 1447 1447 1447 1447 1447 1447 1447 1448 1449 1449 1450 1452 1453 1454 1455 1456 1457 1459 1460 1460 1460 1462 1463 1464 1465 1466 1467 1467 1469 1471 1471 1473 1474 1476 1477 1479 1480 1482
1446 1445 1444 1443 1442 1442 1442 1442 1442 1442 1442 1442 1443 1443 1444 1445 1446 1447 1448 1449 1450 1451 1452 1453 1454 1455 1457 1458 1459 1460 1460 1461 1462 1464 1465 1466 1466 1468 1470 1471 1473 1475 1476
1442 1441 1440 1439 1438 1437 1437 1437 1437 1437 1436 1437 1437 1438 1438 1439 1440 1442 1442 1443 1444 1445 1446 1448 1449 1450 1451 1452 1453 1454 1455 1456 1456 1457 1460 1461 1461 1463 1464 1466 1468 1469 1471
1439 1437 1436 1435 1434 1433 1433 1433 1433 1432 1431 1431 1432 1432 1433 1433 1434 1436 1437 1437 1438 1439 1440 1441 1443 1444 1445 1446 1447 1448 1449 1450 1451 1452 1454 1456 1457 1458 1459 1460 1462 1463 1465